Year,Month,Day,Hour,Minute,Value (Times are PST for temperature in C)
2012,08,04,00,00,17.90
2012,08,04,00,01,17.90
2012,08,04,00,02,17.90
2012,08,04,00,03,17.90
2012,08,04,00,04,17.80
2012,08,04,00,05,17.80
2012,08,04,00,06,17.80
2012,08,04,00,07,17.80
2012,08,04,00,08,17.70
2012,08,04,00,09,17.70
2012,08,04,00,10,17.70
2012,08,04,00,11,17.70
2012,08,04,00,12,17.70
2012,08,04,00,13,17.70
2012,08,04,00,14,17.70
2012,08,04,00,15,17.70
2012,08,04,00,16,17.70
2012,08,04,00,17,17.60
2012,08,04,00,18,17.60
2012,08,04,00,19,17.60
2012,08,04,00,20,17.60
2012,08,04,00,21,17.50
2012,08,04,00,22,17.50
2012,08,04,00,23,17.50
2012,08,04,00,24,17.50
2012,08,04,00,25,17.40
2012,08,04,00,26,17.40
2012,08,04,00,27,17.40
2012,08,04,00,28,17.40
2012,08,04,00,29,17.40
2012,08,04,00,30,17.40
2012,08,04,00,31,17.30
2012,08,04,00,32,17.30
2012,08,04,00,33,17.30
2012,08,04,00,34,17.30
2012,08,04,00,35,17.30
2012,08,04,00,36,17.30
2012,08,04,00,37,17.30
2012,08,04,00,38,17.30
2012,08,04,00,39,17.30
2012,08,04,00,40,17.30
2012,08,04,00,41,17.20
2012,08,04,00,42,17.20
2012,08,04,00,43,17.20
2012,08,04,00,44,17.20
2012,08,04,00,45,17.20
2012,08,04,00,46,17.10
2012,08,04,00,47,17.10
2012,08,04,00,48,17.10
2012,08,04,00,49,17.10
2012,08,04,00,50,17.10
2012,08,04,00,51,17.10
2012,08,04,00,52,17.20
2012,08,04,00,53,17.20
2012,08,04,00,54,17.20
2012,08,04,00,55,17.20
2012,08,04,00,56,17.20
2012,08,04,00,57,17.20
2012,08,04,00,58,17.20
2012,08,04,00,59,17.20
2012,08,04,01,00,17.20
2012,08,04,01,01,17.10
2012,08,04,01,02,17.10
2012,08,04,01,03,17.10
2012,08,04,01,04,17.10
2012,08,04,01,05,17.10
2012,08,04,01,06,17.00
2012,08,04,01,07,17.00
2012,08,04,01,08,17.00
2012,08,04,01,09,17.00
2012,08,04,01,10,16.90
2012,08,04,01,11,16.90
2012,08,04,01,12,16.90
2012,08,04,01,13,16.80
2012,08,04,01,14,16.80
2012,08,04,01,15,16.70
2012,08,04,01,16,16.70
2012,08,04,01,17,16.70
2012,08,04,01,18,16.70
2012,08,04,01,19,16.70
2012,08,04,01,20,16.60
2012,08,04,01,21,16.60
2012,08,04,01,22,16.60
2012,08,04,01,23,16.60
2012,08,04,01,24,16.40
2012,08,04,01,25,16.40
2012,08,04,01,26,16.40
2012,08,04,01,27,16.40
2012,08,04,01,28,16.40
2012,08,04,01,29,16.40
2012,08,04,01,30,16.40
2012,08,04,01,31,16.40
2012,08,04,01,32,16.50
2012,08,04,01,33,16.60
2012,08,04,01,34,16.60
2012,08,04,01,35,16.60
2012,08,04,01,36,16.60
2012,08,04,01,37,16.60
2012,08,04,01,38,16.50
2012,08,04,01,39,16.50
2012,08,04,01,40,16.50
2012,08,04,01,41,16.50
2012,08,04,01,42,16.40
2012,08,04,01,43,16.40
2012,08,04,01,44,16.40
2012,08,04,01,45,16.40
2012,08,04,01,46,16.40
2012,08,04,01,47,16.40
2012,08,04,01,48,16.40
2012,08,04,01,49,16.40
2012,08,04,01,50,16.40
2012,08,04,01,51,16.40
2012,08,04,01,52,16.40
2012,08,04,01,53,16.40
2012,08,04,01,54,16.40
2012,08,04,01,55,16.40
2012,08,04,01,56,16.40
2012,08,04,01,57,16.30
2012,08,04,01,58,16.30
2012,08,04,01,59,16.30
2012,08,04,02,00,16.30
2012,08,04,02,01,16.30
2012,08,04,02,02,16.20
2012,08,04,02,03,16.20
2012,08,04,02,04,16.20
2012,08,04,02,05,16.20
2012,08,04,02,06,16.20
2012,08,04,02,07,16.20
2012,08,04,02,08,16.20
2012,08,04,02,09,16.20
2012,08,04,02,10,16.20
2012,08,04,02,11,16.20
2012,08,04,02,12,16.20
2012,08,04,02,13,16.20
2012,08,04,02,14,16.20
2012,08,04,02,15,16.20
2012,08,04,02,16,16.20
2012,08,04,02,17,16.20
2012,08,04,02,18,16.20
2012,08,04,02,19,16.20
2012,08,04,02,20,16.10
2012,08,04,02,21,16.10
2012,08,04,02,22,16.10
2012,08,04,02,23,16.00
2012,08,04,02,24,15.90
2012,08,04,02,25,15.90
2012,08,04,02,26,15.80
2012,08,04,02,27,15.80
2012,08,04,02,28,15.80
2012,08,04,02,29,15.80
2012,08,04,02,30,15.80
2012,08,04,02,31,15.80
2012,08,04,02,32,15.80
2012,08,04,02,33,15.80
2012,08,04,02,34,15.80
2012,08,04,02,35,15.80
2012,08,04,02,36,15.80
2012,08,04,02,37,15.80
2012,08,04,02,38,15.80
2012,08,04,02,39,15.80
2012,08,04,02,40,15.80
2012,08,04,02,41,15.80
2012,08,04,02,42,15.80
2012,08,04,02,43,15.90
2012,08,04,02,44,15.90
2012,08,04,02,45,15.90
2012,08,04,02,46,15.90
2012,08,04,02,47,16.10
2012,08,04,02,48,16.10
2012,08,04,02,49,16.00
2012,08,04,02,50,15.90
2012,08,04,02,51,15.90
2012,08,04,02,52,15.90
2012,08,04,02,53,15.90
2012,08,04,02,54,15.80
2012,08,04,02,55,15.80
2012,08,04,02,56,15.80
2012,08,04,02,57,15.80
2012,08,04,02,58,15.80
2012,08,04,02,59,15.70
2012,08,04,03,00,15.70
2012,08,04,03,01,15.70
2012,08,04,03,02,15.70
2012,08,04,03,03,15.70
2012,08,04,03,04,15.60
2012,08,04,03,05,15.60
2012,08,04,03,06,15.60
2012,08,04,03,07,15.60
2012,08,04,03,08,15.70
2012,08,04,03,09,15.70
2012,08,04,03,10,15.70
2012,08,04,03,11,15.70
2012,08,04,03,12,15.70
2012,08,04,03,13,15.70
2012,08,04,03,14,15.70
2012,08,04,03,15,15.60
2012,08,04,03,16,15.60
2012,08,04,03,17,15.60
2012,08,04,03,18,15.60
2012,08,04,03,19,15.60
2012,08,04,03,20,15.60
2012,08,04,03,21,15.60
2012,08,04,03,22,15.60
2012,08,04,03,23,15.60
2012,08,04,03,24,15.60
2012,08,04,03,25,15.70
2012,08,04,03,26,15.60
2012,08,04,03,27,15.60
2012,08,04,03,28,15.60
2012,08,04,03,29,15.60
2012,08,04,03,30,15.60
2012,08,04,03,31,15.60
2012,08,04,03,32,15.60
2012,08,04,03,33,15.60
2012,08,04,03,34,15.60
2012,08,04,03,35,15.50
2012,08,04,03,36,15.50
2012,08,04,03,37,15.50
2012,08,04,03,38,15.50
2012,08,04,03,39,15.40
2012,08,04,03,40,15.40
2012,08,04,03,41,15.40
2012,08,04,03,42,15.40
2012,08,04,03,43,15.40
2012,08,04,03,44,15.30
2012,08,04,03,45,15.30
2012,08,04,03,46,15.30
2012,08,04,03,47,15.30
2012,08,04,03,48,15.30
2012,08,04,03,49,15.40
2012,08,04,03,50,15.40
2012,08,04,03,51,15.40
2012,08,04,03,52,15.40
2012,08,04,03,53,15.40
2012,08,04,03,54,15.40
2012,08,04,03,55,15.40
2012,08,04,03,56,15.40
2012,08,04,03,57,15.40
2012,08,04,03,58,15.40
2012,08,04,03,59,15.40
2012,08,04,04,00,15.40
2012,08,04,04,01,15.40
2012,08,04,04,02,15.40
2012,08,04,04,03,15.40
2012,08,04,04,04,15.40
2012,08,04,04,05,15.40
2012,08,04,04,06,15.30
2012,08,04,04,07,15.30
2012,08,04,04,08,15.30
2012,08,04,04,09,15.30
2012,08,04,04,10,15.30
2012,08,04,04,11,15.30
2012,08,04,04,12,15.30
2012,08,04,04,13,15.20
2012,08,04,04,14,15.20
2012,08,04,04,15,15.20
2012,08,04,04,16,15.20
2012,08,04,04,17,15.20
2012,08,04,04,18,15.20
2012,08,04,04,19,15.20
2012,08,04,04,20,15.20
2012,08,04,04,21,15.20
2012,08,04,04,22,15.20
2012,08,04,04,23,15.20
2012,08,04,04,24,15.20
2012,08,04,04,25,15.10
2012,08,04,04,26,15.10
2012,08,04,04,27,15.10
2012,08,04,04,28,15.10
2012,08,04,04,29,15.00
2012,08,04,04,30,15.00
2012,08,04,04,31,15.00
2012,08,04,04,32,15.00
2012,08,04,04,33,15.00
2012,08,04,04,34,15.00
2012,08,04,04,35,14.90
2012,08,04,04,36,14.90
2012,08,04,04,37,14.90
2012,08,04,04,38,14.90
2012,08,04,04,39,14.90
2012,08,04,04,40,14.80
2012,08,04,04,41,14.80
2012,08,04,04,42,14.80
2012,08,04,04,43,14.80
2012,08,04,04,44,14.80
2012,08,04,04,45,14.80
2012,08,04,04,46,14.80
2012,08,04,04,47,14.80
2012,08,04,04,48,14.80
2012,08,04,04,49,14.80
2012,08,04,04,50,14.80
2012,08,04,04,51,14.80
2012,08,04,04,52,14.70
2012,08,04,04,53,14.70
2012,08,04,04,54,14.70
2012,08,04,04,55,14.70
2012,08,04,04,56,14.70
2012,08,04,04,57,14.70
2012,08,04,04,58,14.60
2012,08,04,04,59,14.60
2012,08,04,05,00,14.60
2012,08,04,05,01,14.50
2012,08,04,05,02,14.50
2012,08,04,05,03,14.40
2012,08,04,05,04,14.40
2012,08,04,05,05,14.40
2012,08,04,05,06,14.30
2012,08,04,05,07,14.30
2012,08,04,05,08,14.30
2012,08,04,05,09,14.30
2012,08,04,05,10,14.20
2012,08,04,05,11,14.30
2012,08,04,05,12,14.30
2012,08,04,05,13,14.30
2012,08,04,05,14,14.30
2012,08,04,05,15,14.30
2012,08,04,05,16,14.30
2012,08,04,05,17,14.30
2012,08,04,05,18,14.30
2012,08,04,05,19,14.30
2012,08,04,05,20,14.30
2012,08,04,05,21,14.30
2012,08,04,05,22,14.30
2012,08,04,05,23,14.30
2012,08,04,05,24,14.30
2012,08,04,05,25,14.30
2012,08,04,05,26,14.30
2012,08,04,05,27,14.30
2012,08,04,05,28,14.40
2012,08,04,05,29,14.40
2012,08,04,05,30,14.40
2012,08,04,05,31,14.40
2012,08,04,05,32,14.40
2012,08,04,05,33,14.40
2012,08,04,05,34,14.40
2012,08,04,05,35,14.40
2012,08,04,05,36,14.50
2012,08,04,05,37,14.50
2012,08,04,05,38,14.50
2012,08,04,05,39,14.50
2012,08,04,05,40,14.60
2012,08,04,05,41,14.60
2012,08,04,05,42,14.60
2012,08,04,05,43,14.60
2012,08,04,05,44,14.60
2012,08,04,05,45,14.60
2012,08,04,05,46,14.60
2012,08,04,05,47,14.60
2012,08,04,05,48,14.60
2012,08,04,05,49,14.60
2012,08,04,05,50,14.70
2012,08,04,05,51,14.70
2012,08,04,05,52,14.70
2012,08,04,05,53,14.70
2012,08,04,05,54,14.70
2012,08,04,05,55,14.70
2012,08,04,05,56,14.70
2012,08,04,05,57,14.70
2012,08,04,05,58,14.70
2012,08,04,05,59,14.70
2012,08,04,06,00,14.70
2012,08,04,06,01,14.70
2012,08,04,06,02,14.70
2012,08,04,06,03,14.70
2012,08,04,06,04,14.70
2012,08,04,06,05,14.70
2012,08,04,06,06,14.60
2012,08,04,06,07,14.60
2012,08,04,06,08,14.60
2012,08,04,06,09,14.60
2012,08,04,06,10,14.60
2012,08,04,06,11,14.60
2012,08,04,06,12,14.60
2012,08,04,06,13,14.60
2012,08,04,06,14,14.60
2012,08,04,06,15,14.60
2012,08,04,06,16,14.60
2012,08,04,06,17,14.60
2012,08,04,06,18,14.60
2012,08,04,06,19,14.60
2012,08,04,06,20,14.70
2012,08,04,06,21,14.70
2012,08,04,06,22,14.80
2012,08,04,06,23,14.80
2012,08,04,06,24,14.80
2012,08,04,06,25,14.80
2012,08,04,06,26,14.80
2012,08,04,06,27,14.80
2012,08,04,06,28,14.80
2012,08,04,06,29,14.90
2012,08,04,06,30,14.90
2012,08,04,06,31,14.90
2012,08,04,06,32,14.90
2012,08,04,06,33,14.90
2012,08,04,06,34,14.90
2012,08,04,06,35,15.00
2012,08,04,06,36,15.00
2012,08,04,06,37,15.00
2012,08,04,06,38,15.10
2012,08,04,06,39,15.10
2012,08,04,06,40,15.20
2012,08,04,06,41,15.30
2012,08,04,06,42,15.30
2012,08,04,06,43,15.30
2012,08,04,06,44,15.30
2012,08,04,06,45,15.30
2012,08,04,06,46,15.40
2012,08,04,06,47,15.40
2012,08,04,06,48,15.50
2012,08,04,06,49,15.50
2012,08,04,06,50,15.50
2012,08,04,06,51,15.60
2012,08,04,06,52,15.60
2012,08,04,06,53,15.70
2012,08,04,06,54,15.70
2012,08,04,06,55,15.80
2012,08,04,06,56,15.80
2012,08,04,06,57,15.90
2012,08,04,06,58,15.90
2012,08,04,06,59,16.00
2012,08,04,07,00,16.10
2012,08,04,07,01,16.10
2012,08,04,07,02,16.10
2012,08,04,07,03,16.10
2012,08,04,07,04,16.10
2012,08,04,07,05,16.10
2012,08,04,07,06,16.10
2012,08,04,07,07,16.10
2012,08,04,07,08,16.10
2012,08,04,07,09,16.20
2012,08,04,07,10,16.20
2012,08,04,07,11,16.30
2012,08,04,07,12,16.30
2012,08,04,07,13,16.30
2012,08,04,07,14,16.30
2012,08,04,07,15,16.30
2012,08,04,07,16,16.40
2012,08,04,07,17,16.40
2012,08,04,07,18,16.40
2012,08,04,07,19,16.40
2012,08,04,07,20,16.40
2012,08,04,07,21,16.50
2012,08,04,07,22,16.60
2012,08,04,07,23,16.60
2012,08,04,07,24,16.70
2012,08,04,07,25,16.70
2012,08,04,07,26,16.70
2012,08,04,07,27,16.70
2012,08,04,07,28,16.70
2012,08,04,07,29,16.80
2012,08,04,07,30,16.80
2012,08,04,07,31,16.90
2012,08,04,07,32,16.90
2012,08,04,07,33,17.00
2012,08,04,07,34,17.00
2012,08,04,07,35,17.10
2012,08,04,07,36,17.10
2012,08,04,07,37,17.20
2012,08,04,07,38,17.20
2012,08,04,07,39,17.30
2012,08,04,07,40,17.30
2012,08,04,07,41,17.30
2012,08,04,07,42,17.30
2012,08,04,07,43,17.40
2012,08,04,07,44,17.40
2012,08,04,07,45,17.50
2012,08,04,07,46,17.60
2012,08,04,07,47,17.60
2012,08,04,07,48,17.70
2012,08,04,07,49,17.70
2012,08,04,07,50,17.80
2012,08,04,07,51,17.80
2012,08,04,07,52,17.90
2012,08,04,07,53,17.90
2012,08,04,07,54,17.90
2012,08,04,07,55,17.90
2012,08,04,07,56,18.00
2012,08,04,07,57,18.10
2012,08,04,07,58,18.10
2012,08,04,07,59,18.10
2012,08,04,08,00,18.20
2012,08,04,08,01,18.20
2012,08,04,08,02,18.30
2012,08,04,08,03,18.30
2012,08,04,08,04,18.40
2012,08,04,08,05,18.40
2012,08,04,08,06,18.50
2012,08,04,08,07,18.50
2012,08,04,08,08,18.60
2012,08,04,08,09,18.70
2012,08,04,08,10,18.80
2012,08,04,08,11,18.90
2012,08,04,08,12,19.00
2012,08,04,08,13,19.10
2012,08,04,08,14,19.10
2012,08,04,08,15,19.20
2012,08,04,08,16,19.30
2012,08,04,08,17,19.30
2012,08,04,08,18,19.40
2012,08,04,08,19,19.50
2012,08,04,08,20,19.50
2012,08,04,08,21,19.60
2012,08,04,08,22,19.60
2012,08,04,08,23,19.70
2012,08,04,08,24,19.80
2012,08,04,08,25,20.00
2012,08,04,08,26,20.10
2012,08,04,08,27,20.20
2012,08,04,08,28,20.30
2012,08,04,08,29,20.40
2012,08,04,08,30,20.50
2012,08,04,08,31,20.60
2012,08,04,08,32,20.70
2012,08,04,08,33,20.80
2012,08,04,08,34,20.90
2012,08,04,08,35,20.90
2012,08,04,08,36,21.00
2012,08,04,08,37,21.10
2012,08,04,08,38,21.20
2012,08,04,08,39,21.30
2012,08,04,08,40,21.30
2012,08,04,08,41,21.50
2012,08,04,08,42,21.60
2012,08,04,08,43,21.60
2012,08,04,08,44,21.70
2012,08,04,08,45,21.90
2012,08,04,08,46,22.00
2012,08,04,08,47,22.00
2012,08,04,08,48,22.10
2012,08,04,08,49,22.20
2012,08,04,08,50,22.30
2012,08,04,08,51,22.40
2012,08,04,08,52,22.50
2012,08,04,08,53,22.50
2012,08,04,08,54,22.60
2012,08,04,08,55,22.70
2012,08,04,08,56,22.70
2012,08,04,08,57,22.80
2012,08,04,08,58,22.80
2012,08,04,08,59,22.80
2012,08,04,09,00,22.80
2012,08,04,09,01,22.90
2012,08,04,09,02,22.90
2012,08,04,09,03,22.90
2012,08,04,09,04,22.90
2012,08,04,09,05,22.90
2012,08,04,09,06,22.90
2012,08,04,09,07,23.00
2012,08,04,09,08,23.10
2012,08,04,09,09,23.10
2012,08,04,09,10,23.10
2012,08,04,09,11,23.20
2012,08,04,09,12,23.20
2012,08,04,09,13,23.20
2012,08,04,09,14,23.20
2012,08,04,09,15,23.10
2012,08,04,09,16,23.10
2012,08,04,09,17,23.10
2012,08,04,09,18,23.20
2012,08,04,09,19,23.20
2012,08,04,09,20,23.30
2012,08,04,09,21,23.30
2012,08,04,09,22,23.30
2012,08,04,09,23,23.30
2012,08,04,09,24,23.30
2012,08,04,09,25,23.40
2012,08,04,09,26,23.50
2012,08,04,09,27,23.60
2012,08,04,09,28,23.70
2012,08,04,09,29,23.70
2012,08,04,09,30,23.70
2012,08,04,09,31,23.70
2012,08,04,09,32,23.60
2012,08,04,09,33,23.60
2012,08,04,09,34,23.50
2012,08,04,09,35,23.40
2012,08,04,09,36,23.40
2012,08,04,09,37,23.40
2012,08,04,09,38,23.40
2012,08,04,09,39,23.40
2012,08,04,09,40,23.60
2012,08,04,09,41,23.60
2012,08,04,09,42,23.70
2012,08,04,09,43,23.70
2012,08,04,09,44,23.70
2012,08,04,09,45,23.80
2012,08,04,09,46,23.80
2012,08,04,09,47,23.80
2012,08,04,09,48,23.80
2012,08,04,09,49,23.70
2012,08,04,09,50,23.70
2012,08,04,09,51,23.70
2012,08,04,09,52,23.60
2012,08,04,09,53,23.60
2012,08,04,09,54,23.60
2012,08,04,09,55,23.70
2012,08,04,09,56,23.70
2012,08,04,09,57,23.70
2012,08,04,09,58,23.70
2012,08,04,09,59,23.70
2012,08,04,10,00,23.70
2012,08,04,10,01,23.70
2012,08,04,10,02,23.70
2012,08,04,10,03,23.70
2012,08,04,10,04,23.70
2012,08,04,10,05,23.70
2012,08,04,10,06,23.70
2012,08,04,10,07,23.80
2012,08,04,10,08,23.80
2012,08,04,10,09,23.90
2012,08,04,10,10,24.00
2012,08,04,10,11,24.10
2012,08,04,10,12,24.20
2012,08,04,10,13,24.20
2012,08,04,10,14,24.20
2012,08,04,10,15,24.30
2012,08,04,10,16,24.30
2012,08,04,10,17,24.30
2012,08,04,10,18,24.40
2012,08,04,10,19,24.40
2012,08,04,10,20,24.30
2012,08,04,10,21,24.40
2012,08,04,10,22,24.50
2012,08,04,10,23,24.50
2012,08,04,10,24,24.60
2012,08,04,10,25,24.50
2012,08,04,10,26,24.50
2012,08,04,10,27,24.50
2012,08,04,10,28,24.50
2012,08,04,10,29,24.50
2012,08,04,10,30,24.50
2012,08,04,10,31,24.50
2012,08,04,10,32,24.40
2012,08,04,10,33,24.50
2012,08,04,10,34,24.50
2012,08,04,10,35,24.60
2012,08,04,10,36,24.70
2012,08,04,10,37,24.80
2012,08,04,10,38,24.90
2012,08,04,10,39,25.00
2012,08,04,10,40,25.00
2012,08,04,10,41,25.00
2012,08,04,10,42,25.00
2012,08,04,10,43,25.10
2012,08,04,10,44,25.10
2012,08,04,10,45,25.10
2012,08,04,10,46,25.00
2012,08,04,10,47,25.00
2012,08,04,10,48,25.00
2012,08,04,10,49,25.00
2012,08,04,10,50,25.10
2012,08,04,10,51,25.10
2012,08,04,10,52,25.20
2012,08,04,10,53,25.20
2012,08,04,10,54,25.30
2012,08,04,10,55,25.40
2012,08,04,10,56,25.30
2012,08,04,10,57,25.30
2012,08,04,10,58,25.30
2012,08,04,10,59,25.30
2012,08,04,11,00,25.40
2012,08,04,11,01,25.40
2012,08,04,11,02,25.50
2012,08,04,11,03,25.50
2012,08,04,11,04,25.60
2012,08,04,11,05,25.60
2012,08,04,11,06,25.60
2012,08,04,11,07,25.60
2012,08,04,11,08,25.60
2012,08,04,11,09,25.60
2012,08,04,11,10,25.50
2012,08,04,11,11,25.40
2012,08,04,11,12,25.30
2012,08,04,11,13,25.40
2012,08,04,11,14,25.50
2012,08,04,11,15,25.60
2012,08,04,11,16,25.60
2012,08,04,11,17,25.70
2012,08,04,11,18,25.70
2012,08,04,11,19,25.70
2012,08,04,11,20,25.70
2012,08,04,11,21,25.70
2012,08,04,11,22,25.70
2012,08,04,11,23,25.70
2012,08,04,11,24,25.60
2012,08,04,11,25,25.50
2012,08,04,11,26,25.40
2012,08,04,11,27,25.40
2012,08,04,11,28,25.40
2012,08,04,11,29,25.40
2012,08,04,11,30,25.40
2012,08,04,11,31,25.50
2012,08,04,11,32,25.50
2012,08,04,11,33,25.50
2012,08,04,11,34,25.50
2012,08,04,11,35,25.50
2012,08,04,11,36,25.50
2012,08,04,11,37,25.50
2012,08,04,11,38,25.40
2012,08,04,11,39,25.40
2012,08,04,11,40,25.40
2012,08,04,11,41,25.50
2012,08,04,11,42,25.70
2012,08,04,11,43,25.70
2012,08,04,11,44,25.70
2012,08,04,11,45,25.70
2012,08,04,11,46,25.70
2012,08,04,11,47,25.70
2012,08,04,11,48,25.80
2012,08,04,11,49,25.90
2012,08,04,11,50,26.00
2012,08,04,11,51,26.10
2012,08,04,11,52,26.20
2012,08,04,11,53,26.30
2012,08,04,11,54,26.30
2012,08,04,11,55,26.20
2012,08,04,11,56,26.30
2012,08,04,11,57,26.30
2012,08,04,11,58,26.30
2012,08,04,11,59,26.30
2012,08,04,12,00,26.40
2012,08,04,12,01,26.40
2012,08,04,12,02,26.60
2012,08,04,12,03,26.60
2012,08,04,12,04,26.70
2012,08,04,12,05,26.70
2012,08,04,12,06,26.80
2012,08,04,12,07,26.90
2012,08,04,12,08,26.80
2012,08,04,12,09,26.90
2012,08,04,12,10,26.90
2012,08,04,12,11,26.90
2012,08,04,12,12,26.80
2012,08,04,12,13,26.80
2012,08,04,12,14,26.80
2012,08,04,12,15,26.80
2012,08,04,12,16,26.90
2012,08,04,12,17,26.90
2012,08,04,12,18,26.90
2012,08,04,12,19,26.90
2012,08,04,12,20,26.90
2012,08,04,12,21,26.90
2012,08,04,12,22,26.90
2012,08,04,12,23,26.90
2012,08,04,12,24,26.90
2012,08,04,12,25,26.90
2012,08,04,12,26,26.90
2012,08,04,12,27,27.00
2012,08,04,12,28,26.90
2012,08,04,12,29,27.10
2012,08,04,12,30,27.10
2012,08,04,12,31,27.20
2012,08,04,12,32,27.20
2012,08,04,12,33,27.30
2012,08,04,12,34,27.30
2012,08,04,12,35,27.30
2012,08,04,12,36,27.40
2012,08,04,12,37,27.40
2012,08,04,12,38,27.30
2012,08,04,12,39,27.30
2012,08,04,12,40,27.40
2012,08,04,12,41,27.40
2012,08,04,12,42,27.60
2012,08,04,12,43,27.60
2012,08,04,12,44,27.60
2012,08,04,12,45,27.60
2012,08,04,12,46,27.70
2012,08,04,12,47,27.70
2012,08,04,12,48,27.70
2012,08,04,12,49,27.70
2012,08,04,12,50,27.50
2012,08,04,12,51,27.40
2012,08,04,12,52,27.30
2012,08,04,12,53,27.40
2012,08,04,12,54,27.50
2012,08,04,12,55,27.60
2012,08,04,12,56,27.70
2012,08,04,12,57,27.70
2012,08,04,12,58,27.80
2012,08,04,12,59,27.80
2012,08,04,13,00,27.80
2012,08,04,13,01,27.80
2012,08,04,13,02,27.80
2012,08,04,13,03,27.70
2012,08,04,13,04,27.70
2012,08,04,13,05,27.60
2012,08,04,13,06,27.60
2012,08,04,13,07,27.60
2012,08,04,13,08,27.60
2012,08,04,13,09,27.70
2012,08,04,13,10,27.80
2012,08,04,13,11,27.90
2012,08,04,13,12,28.00
2012,08,04,13,13,28.00
2012,08,04,13,14,28.00
2012,08,04,13,15,28.10
2012,08,04,13,16,28.10
2012,08,04,13,17,28.20
2012,08,04,13,18,28.20
2012,08,04,13,19,28.20
2012,08,04,13,20,28.30
2012,08,04,13,21,28.30
2012,08,04,13,22,28.20
2012,08,04,13,23,28.20
2012,08,04,13,24,28.20
2012,08,04,13,25,28.20
2012,08,04,13,26,28.30
2012,08,04,13,27,28.30
2012,08,04,13,28,28.30
2012,08,04,13,29,28.20
2012,08,04,13,30,28.10
2012,08,04,13,31,28.00
2012,08,04,13,32,28.00
2012,08,04,13,33,28.00
2012,08,04,13,34,28.00
2012,08,04,13,35,28.00
2012,08,04,13,36,28.10
2012,08,04,13,37,28.00
2012,08,04,13,38,28.00
2012,08,04,13,39,27.90
2012,08,04,13,40,27.80
2012,08,04,13,41,27.70
2012,08,04,13,42,27.80
2012,08,04,13,43,27.80
2012,08,04,13,44,27.90
2012,08,04,13,45,27.90
2012,08,04,13,46,28.00
2012,08,04,13,47,28.00
2012,08,04,13,48,28.00
2012,08,04,13,49,27.90
2012,08,04,13,50,27.90
2012,08,04,13,51,27.90
2012,08,04,13,52,28.10
2012,08,04,13,53,28.20
2012,08,04,13,54,28.40
2012,08,04,13,55,28.50
2012,08,04,13,56,28.60
2012,08,04,13,57,28.40
2012,08,04,13,58,28.50
2012,08,04,13,59,28.60
2012,08,04,14,00,28.60
2012,08,04,14,01,28.60
2012,08,04,14,02,28.60
2012,08,04,14,03,28.40
2012,08,04,14,04,28.40
2012,08,04,14,05,28.30
2012,08,04,14,06,28.30
2012,08,04,14,07,28.40
2012,08,04,14,08,28.50
2012,08,04,14,09,28.60
2012,08,04,14,10,28.70
2012,08,04,14,11,28.70
2012,08,04,14,12,28.70
2012,08,04,14,13,28.80
2012,08,04,14,14,28.90
2012,08,04,14,15,28.90
2012,08,04,14,16,28.90
2012,08,04,14,17,28.90
2012,08,04,14,18,28.90
2012,08,04,14,19,28.90
2012,08,04,14,20,28.90
2012,08,04,14,21,28.90
2012,08,04,14,22,28.70
2012,08,04,14,23,28.70
2012,08,04,14,24,28.60
2012,08,04,14,25,28.60
2012,08,04,14,26,28.70
2012,08,04,14,27,28.80
2012,08,04,14,28,28.90
2012,08,04,14,29,28.90
2012,08,04,14,30,29.00
2012,08,04,14,31,29.10
2012,08,04,14,32,29.20
2012,08,04,14,33,29.10
2012,08,04,14,34,29.10
2012,08,04,14,35,28.90
2012,08,04,14,36,28.90
2012,08,04,14,37,28.90
2012,08,04,14,38,28.90
2012,08,04,14,39,29.00
2012,08,04,14,40,29.10
2012,08,04,14,41,29.10
2012,08,04,14,42,29.00
2012,08,04,14,43,28.90
2012,08,04,14,44,28.80
2012,08,04,14,45,28.80
2012,08,04,14,46,28.80
2012,08,04,14,47,28.80
2012,08,04,14,48,28.80
2012,08,04,14,49,28.90
2012,08,04,14,50,28.90
2012,08,04,14,51,29.00
2012,08,04,14,52,29.10
2012,08,04,14,53,29.10
2012,08,04,14,54,29.10
2012,08,04,14,55,29.20
2012,08,04,14,56,29.20
2012,08,04,14,57,29.20
2012,08,04,14,58,29.20
2012,08,04,14,59,29.30
2012,08,04,15,00,29.20
2012,08,04,15,01,29.20
2012,08,04,15,02,29.10
2012,08,04,15,03,29.10
2012,08,04,15,04,29.00
2012,08,04,15,05,28.90
2012,08,04,15,06,28.90
2012,08,04,15,07,28.90
2012,08,04,15,08,28.90
2012,08,04,15,09,28.90
2012,08,04,15,10,28.90
2012,08,04,15,11,29.00
2012,08,04,15,12,29.10
2012,08,04,15,13,29.10
2012,08,04,15,14,29.20
2012,08,04,15,15,29.20
2012,08,04,15,16,29.20
2012,08,04,15,17,29.20
2012,08,04,15,18,29.20
2012,08,04,15,19,29.20
2012,08,04,15,20,29.40
2012,08,04,15,21,29.40
2012,08,04,15,22,29.50
2012,08,04,15,23,29.50
2012,08,04,15,24,29.40
2012,08,04,15,25,29.30
2012,08,04,15,26,29.30
2012,08,04,15,27,29.30
2012,08,04,15,28,29.30
2012,08,04,15,29,29.50
2012,08,04,15,30,29.60
2012,08,04,15,31,29.70
2012,08,04,15,32,29.80
2012,08,04,15,33,30.00
2012,08,04,15,34,30.10
2012,08,04,15,35,30.20
2012,08,04,15,36,30.20
2012,08,04,15,37,30.30
2012,08,04,15,38,30.10
2012,08,04,15,39,30.00
2012,08,04,15,40,29.90
2012,08,04,15,41,29.80
2012,08,04,15,42,29.70
2012,08,04,15,43,29.60
2012,08,04,15,44,29.60
2012,08,04,15,45,29.70
2012,08,04,15,46,29.70
2012,08,04,15,47,29.70
2012,08,04,15,48,29.80
2012,08,04,15,49,29.90
2012,08,04,15,50,30.00
2012,08,04,15,51,30.20
2012,08,04,15,52,30.20
2012,08,04,15,53,30.30
2012,08,04,15,54,30.30
2012,08,04,15,55,30.20
2012,08,04,15,56,30.00
2012,08,04,15,57,29.80
2012,08,04,15,58,29.70
2012,08,04,15,59,29.70
2012,08,04,16,00,29.70
2012,08,04,16,01,29.80
2012,08,04,16,02,29.80
2012,08,04,16,03,29.80
2012,08,04,16,04,29.90
2012,08,04,16,05,30.00
2012,08,04,16,06,30.10
2012,08,04,16,07,30.00
2012,08,04,16,08,29.90
2012,08,04,16,09,29.90
2012,08,04,16,10,29.80
2012,08,04,16,11,29.80
2012,08,04,16,12,29.90
2012,08,04,16,13,29.90
2012,08,04,16,14,29.90
2012,08,04,16,15,29.90
2012,08,04,16,16,29.90
2012,08,04,16,17,30.00
2012,08,04,16,18,30.10
2012,08,04,16,19,30.20
2012,08,04,16,20,30.20
2012,08,04,16,21,30.20
2012,08,04,16,22,30.20
2012,08,04,16,23,30.30
2012,08,04,16,24,30.20
2012,08,04,16,25,30.10
2012,08,04,16,26,30.10
2012,08,04,16,27,30.10
2012,08,04,16,28,30.10
2012,08,04,16,29,30.10
2012,08,04,16,30,30.10
2012,08,04,16,31,30.10
2012,08,04,16,32,30.20
2012,08,04,16,33,30.20
2012,08,04,16,34,30.10
2012,08,04,16,35,30.10
2012,08,04,16,36,30.10
2012,08,04,16,37,30.10
2012,08,04,16,38,30.20
2012,08,04,16,39,30.30
2012,08,04,16,40,30.40
2012,08,04,16,41,30.50
2012,08,04,16,42,30.70
2012,08,04,16,43,30.80
2012,08,04,16,44,30.80
2012,08,04,16,45,30.90
2012,08,04,16,46,31.00
2012,08,04,16,47,31.00
2012,08,04,16,48,31.00
2012,08,04,16,49,31.10
2012,08,04,16,50,31.10
2012,08,04,16,51,31.10
2012,08,04,16,52,31.20
2012,08,04,16,53,31.10
2012,08,04,16,54,31.20
2012,08,04,16,55,31.20
2012,08,04,16,56,31.20
2012,08,04,16,57,31.20
2012,08,04,16,58,31.20
2012,08,04,16,59,31.20
2012,08,04,17,00,31.20
2012,08,04,17,01,31.20
2012,08,04,17,02,31.20
2012,08,04,17,03,31.20
2012,08,04,17,04,31.20
2012,08,04,17,05,31.20
2012,08,04,17,06,31.30
2012,08,04,17,07,31.20
2012,08,04,17,08,31.20
2012,08,04,17,09,31.20
2012,08,04,17,10,31.20
2012,08,04,17,11,31.20
2012,08,04,17,12,31.20
2012,08,04,17,13,31.10
2012,08,04,17,14,31.20
2012,08,04,17,15,31.20
2012,08,04,17,16,31.30
2012,08,04,17,17,31.30
2012,08,04,17,18,31.30
2012,08,04,17,19,31.30